Weather History for Akron, CO

Change the Weather History Date:

Friday, September 7, 2012

  Actual Average Record
Temperature  
Mean Temperature 60 °F 67 °F  
Max Temperature 70 °F 81 °F 100 °F (1940)
Min Temperature 50 °F 53 °F 39 °F (1943)
Degree Days  
Heating Degree Days 5    
Month to date heating degree days 5  
Cooling Degree Days 0    
Month to date cooling degree days 64  
Growing Degree Days 12 (Base 50)    
Moisture  
Dew Point 41 °F    
Average Humidity 51    
Maximum Humidity 64    
Minimum Humidity 37    
Precipitation  
Precipitation T in 0.04 in 1.49 in (1946)
Month to date precipitation 0.03 0.33  
Year to date precipitation 6.36 13.82  
Sea Level Pressure  
Sea Level Pressure 30.13 in    
Wind  
Wind Speed 15 mph (NNE)    
Max Wind Speed 25 mph    
Max Gust Speed 33 mph    
Visibility 10 miles    
Events      
T = Trace of Precipitation, MM = Missing Value Source: NWS Daily Summary

Daily Weather History Graph

Daily Weather History Graph

Search for Another Location

Airport:

Trip Planner

Search our weather history database for the weather conditions in past years. The results will help you decide how hot, cold, wet, or windy it might be!

Date:

Astronomy

Sep. 07, 2012 Rise Set
Actual Time 6:26 AM MDT 7:13 PM MDT
Civil Twilight 5:59 AM MDT 7:41 PM MDT
Nautical Twilight 5:26 AM MDT 8:13 PM MDT
Astronomical Twilight 4:52 AM MDT 8:47 PM MDT
Moon 11:10 PM MDT (9/7) 1:21 PM MDT (9/7)
Length of Visible Light 13h 42m
Length of Day
12h 47m
Waning Gibbous, 58% of the Moon is Illuminated
Sep 7
Waning Gibbous
Sep 8
Last Quarter
Sep 15
New
Sep 22
First Quarter
Sep 29
Full

Hourly Weather History & Observations

Time (MDT) Temp. Dew Point Humidity Pressure Visibility Wind Dir Wind Speed Gust Speed Precip Events Conditions
12:53 AM 64.9 °F 37.0 °F 36% 29.88 in 10.0 mi ENE 24.2 mph 35.7 mph N/A   Clear
1:53 AM 62.1 °F 37.9 °F 41% 29.91 in 10.0 mi NE 17.3 mph 25.3 mph N/A   Clear
2:53 AM 59.0 °F 37.0 °F 44% 29.96 in 10.0 mi North 18.4 mph - N/A   Clear
3:53 AM 60.1 °F 37.0 °F 42% 29.99 in 10.0 mi North 17.3 mph - N/A   Clear
4:53 AM 60.1 °F 37.0 °F 42% 30.03 in 10.0 mi North 15.0 mph - N/A   Clear
5:53 AM 57.9 °F 37.9 °F 47% 30.03 in 10.0 mi NNE 19.6 mph - N/A   Partly Cloudy
6:53 AM 57.0 °F 39.0 °F 51% 30.09 in 10.0 mi North 13.8 mph - N/A   Overcast
7:53 AM 55.9 °F 43.0 °F 62% 30.12 in 10.0 mi NNE 15.0 mph - N/A   Mostly Cloudy
8:53 AM 57.0 °F 44.1 °F 62% 30.14 in 10.0 mi North 12.7 mph - N/A   Mostly Cloudy
9:53 AM 57.9 °F 45.0 °F 62% 30.14 in 10.0 mi North 15.0 mph - 0.00 in   Overcast
10:53 AM 63.0 °F 45.0 °F 52% 30.15 in 10.0 mi North 13.8 mph 18.4 mph N/A   Mostly Cloudy
11:53 AM 66.9 °F 44.1 °F 44% 30.17 in 10.0 mi North 10.4 mph 21.9 mph N/A   Mostly Cloudy
12:53 PM 70.0 °F 43.0 °F 38% 30.16 in 10.0 mi North 16.1 mph 23.0 mph N/A   Mostly Cloudy
1:53 PM 68.0 °F 42.1 °F 39% 30.17 in 10.0 mi North 13.8 mph 21.9 mph N/A   Mostly Cloudy
2:53 PM 66.0 °F 41.0 °F 40% 30.19 in 10.0 mi North 17.3 mph 21.9 mph N/A   Overcast
3:53 PM 66.9 °F 42.1 °F 40% 30.17 in 10.0 mi NNE 16.1 mph - N/A   Mostly Cloudy
4:53 PM 68.0 °F 42.1 °F 39% 30.18 in 10.0 mi North 16.1 mph - N/A   Partly Cloudy
5:53 PM 68.0 °F 42.1 °F 39% 30.18 in 10.0 mi North 9.2 mph - N/A   Mostly Cloudy
6:53 PM 64.0 °F 41.0 °F 43% 30.20 in 10.0 mi North 6.9 mph - N/A   Clear
7:53 PM 57.0 °F 39.0 °F 51% 30.25 in 10.0 mi NNE 5.8 mph - N/A   Clear
8:53 PM 57.0 °F 39.9 °F 53% 30.27 in 10.0 mi Calm Calm - N/A   Clear
9:53 PM 55.9 °F 39.0 °F 53% 30.28 in 10.0 mi Calm Calm - N/A   Clear
10:53 PM 54.0 °F 39.9 °F 59% 30.28 in 10.0 mi Calm Calm - N/A   Clear
11:53 PM 53.1 °F 41.0 °F 64% 30.28 in 10.0 mi Calm Calm - N/A   Clear